This is the latest recevied weather packets stored in our database for station/object E27EKO-13. If no packets are shown the sender has not sent any weather packets the latest 10 day(s).
| Time | Temp. | Humidity | Pressure | Rain* | Wind** | Luminosity | Snow |
|---|---|---|---|---|---|---|---|
| 1777598760 | 39.44° C | 52% | 1010 hPa | - | - | 0 W/m² | - |
| 1777598438 | 40° C | 51% | 1010 hPa | - | - | 0 W/m² | - |
| 1777598117 | 40.56° C | 52% | 1010 hPa | - | - | 0 W/m² | - |
| 1777597856 | 38.89° C | 55% | 1010 hPa | - | - | 0 W/m² | - |
| 1777597737 | 37.78° C | 57% | 1010 hPa | - | - | 0 W/m² | - |
| 1777597415 | 36.67° C | 61% | 1010 hPa | - | - | 0 W/m² | - |
| 1777597093 | 34.44° C | 69% | 1010 hPa | - | - | 0 W/m² | - |
| 1777596771 | 36.11° C | 64% | 1010 hPa | - | - | 0 W/m² | - |
| 1777596449 | 36.67° C | 61% | 1010 hPa | - | - | 0 W/m² | - |
| 1777596127 | 38.89° C | 58% | 1010 hPa | - | - | 0 W/m² | - |
| 1777595713 | 37.78° C | 64% | 1010 hPa | - | - | 0 W/m² | - |
| 1777595391 | 35.56° C | 71% | 1010 hPa | - | - | 0 W/m² | - |
| 1777595069 | 36.11° C | 69% | 1010 hPa | - | - | 0 W/m² | - |
| 1777594747 | 36.11° C | 70% | 1009 hPa | - | - | 0 W/m² | - |
| 1777594425 | 35° C | 73% | 1009 hPa | - | - | 0 W/m² | - |
| 1777594102 | 33.33° C | 80% | 1009 hPa | - | - | 0 W/m² | - |
| 1777593781 | 32.78° C | 84% | 1009 hPa | - | - | 0 W/m² | - |
| 1777593459 | 32.78° C | 85% | 1009 hPa | - | - | 0 W/m² | - |
| 1777593137 | 32.22° C | 88% | 1009 hPa | - | - | 0 W/m² | - |
| 1777592815 | 31.11° C | 95% | 1009 hPa | - | - | 0 W/m² | - |
| 1777592493 | 30.56° C | 98% | 1009 hPa | - | - | 0 W/m² | - |
| 1777592170 | 30° C | 99% | 1009 hPa | - | - | 0 W/m² | - |
| 1777591848 | 30° C | 99% | 1009 hPa | - | - | 0 W/m² | - |
| 1777591527 | 30° C | 99% | 1009 hPa | - | - | 0 W/m² | - |
| 1777591204 | 29.44° C | 99% | 1009 hPa | - | - | 0 W/m² | - |
* Rain since midnight (hover to see other rain measurements)
** Current wind speed in m/s (hover to see current wind gust speed)